Time,TemperatureF,DewpointF,PressureIn,WindDirection,WindDirectionDegrees,WindSpeedMPH,WindSpeedGustMPH,Humidity,HourlyPrecipIn,Conditions,Clouds,dailyrainin,SolarRadiationWatts/m^2,SoftwareType,DateUTC
2013-03-28 00:02:00,39.7,27.0,29.91,NNW,348,1.0,5.0,62,0.00,,,0.00,0,weatherlink.com 1.10,2013-03-28 04:02:00,
2013-03-28 00:17:00,39.8,28.0,29.91,SSE,155,1.0,6.0,62,0.00,,,0.00,0,weatherlink.com 1.10,2013-03-28 04:17:00,
2013-03-28 00:32:00,39.7,28.0,29.91,SSE,159,1.0,3.0,63,0.00,,,0.00,0,weatherlink.com 1.10,2013-03-28 04:32:00,
2013-03-28 00:47:00,39.6,28.0,29.91,NW,325,0.0,6.0,63,0.00,,,0.00,0,weatherlink.com 1.10,2013-03-28 04:47:00,
2013-03-28 01:02:00,39.5,28.0,29.91,WNW,300,1.0,4.0,64,0.00,,,0.00,0,weatherlink.com 1.10,2013-03-28 05:02:00,
2013-03-28 01:17:00,39.2,28.0,29.92,NW,317,4.0,5.0,65,0.00,,,0.00,0,weatherlink.com 1.10,2013-03-28 05:17:00,
2013-03-28 01:32:00,39.2,28.0,29.92,West,271,1.0,5.0,65,0.00,,,0.00,0,weatherlink.com 1.10,2013-03-28 05:32:00,
2013-03-28 01:47:00,39.0,28.0,29.92,WSW,244,1.0,5.0,65,0.00,,,0.00,0,weatherlink.com 1.10,2013-03-28 05:47:00,
2013-03-28 02:02:00,39.0,28.0,29.92,North,350,3.0,6.0,66,0.00,,,0.00,0,weatherlink.com 1.10,2013-03-28 06:02:00,
2013-03-28 02:17:00,39.0,28.0,29.91,NNW,333,2.0,5.0,66,0.00,,,0.00,0,weatherlink.com 1.10,2013-03-28 06:17:00,
2013-03-28 02:32:00,38.9,29.0,29.91,North,350,3.0,3.0,67,0.00,,,0.00,0,weatherlink.com 1.10,2013-03-28 06:32:00,
2013-03-28 02:47:00,38.9,29.0,29.91,South,190,0.0,5.0,67,0.00,,,0.00,0,weatherlink.com 1.10,2013-03-28 06:47:00,
2013-03-28 03:02:00,38.8,29.0,29.91,North,355,2.0,8.0,67,0.00,,,0.00,0,weatherlink.com 1.10,2013-03-28 07:02:00,
2013-03-28 03:17:00,38.8,29.0,29.91,South,180,2.0,6.0,68,0.00,,,0.00,0,weatherlink.com 1.10,2013-03-28 07:17:00,
2013-03-28 03:32:00,38.7,29.0,29.91,North,350,2.0,5.0,68,0.00,,,0.00,0,weatherlink.com 1.10,2013-03-28 07:32:00,
2013-03-28 03:47:00,38.5,29.0,29.91,SW,233,2.0,8.0,68,0.00,,,0.00,0,weatherlink.com 1.10,2013-03-28 07:47:00,
2013-03-28 04:02:00,38.2,28.0,29.91,WNW,301,0.0,5.0,68,0.00,,,0.00,0,weatherlink.com 1.10,2013-03-28 08:02:00,
2013-03-28 04:17:00,37.9,29.0,29.91,SW,221,0.0,2.0,69,0.00,,,0.00,0,weatherlink.com 1.10,2013-03-28 08:17:00,
2013-03-28 04:32:00,37.5,28.0,29.91,NW,325,1.0,4.0,69,0.00,,,0.00,0,weatherlink.com 1.10,2013-03-28 08:32:00,
2013-03-28 04:47:00,37.1,28.0,29.91,West,279,2.0,3.0,70,0.00,,,0.00,0,weatherlink.com 1.10,2013-03-28 08:47:00,
2013-03-28 05:02:00,36.9,28.0,29.92,SW,218,1.0,3.0,71,0.00,,,0.00,0,weatherlink.com 1.10,2013-03-28 09:02:00,
2013-03-28 05:17:00,36.9,29.0,29.92,NNW,344,0.0,5.0,72,0.00,,,0.00,0,weatherlink.com 1.10,2013-03-28 09:17:00,
2013-03-28 05:32:00,36.9,29.0,29.92,NNW,339,0.0,5.0,72,0.00,,,0.00,0,weatherlink.com 1.10,2013-03-28 09:32:00,
2013-03-28 05:47:00,36.9,29.0,29.92,North,360,1.0,4.0,73,0.00,,,0.00,0,weatherlink.com 1.10,2013-03-28 09:47:00,
2013-03-28 06:02:00,36.9,29.0,29.93,WNW,285,1.0,3.0,73,0.00,,,0.00,0,weatherlink.com 1.10,2013-03-28 10:02:00,
2013-03-28 06:17:00,36.8,29.0,29.93,WSW,238,1.0,3.0,73,0.00,,,0.00,0,weatherlink.com 1.10,2013-03-28 10:17:00,
2013-03-28 06:32:00,36.8,29.0,29.93,South,174,0.0,6.0,73,0.00,,,0.00,0,weatherlink.com 1.10,2013-03-28 10:32:00,
2013-03-28 06:47:00,36.9,29.0,29.94,NW,326,0.0,6.0,74,0.00,,,0.00,0,weatherlink.com 1.10,2013-03-28 10:47:00,
2013-03-28 07:02:00,37.3,29.0,29.94,WNW,292,3.0,5.0,73,0.00,,,0.00,7,weatherlink.com 1.10,2013-03-28 11:02:00,
2013-03-28 07:17:00,37.5,30.0,29.95,West,279,2.0,7.0,73,0.00,,,0.00,12,weatherlink.com 1.10,2013-03-28 11:17:00,
2013-03-28 07:32:00,37.9,30.0,29.95,SSW,198,1.0,6.0,72,0.00,,,0.00,21,weatherlink.com 1.10,2013-03-28 11:32:00,
2013-03-28 07:48:00,38.2,30.0,29.96,West,280,0.0,2.0,72,0.00,,,0.00,32,weatherlink.com 1.10,2013-03-28 11:48:00,
2013-03-28 08:03:00,38.3,30.0,29.96,NW,309,1.0,4.0,72,0.00,,,0.00,44,weatherlink.com 1.10,2013-03-28 12:03:00,
2013-03-28 08:18:00,38.5,30.0,29.97,North,350,0.0,4.0,72,0.00,,,0.00,60,weatherlink.com 1.10,2013-03-28 12:18:00,
2013-03-28 08:33:00,38.8,30.0,29.97,West,265,1.0,5.0,72,0.00,,,0.00,76,weatherlink.com 1.10,2013-03-28 12:33:00,
2013-03-28 08:48:00,39.1,31.0,29.97,NNW,327,0.0,3.0,72,0.00,,,0.00,84,weatherlink.com 1.10,2013-03-28 12:48:00,
2013-03-28 09:03:00,39.4,31.0,29.98,West,281,1.0,7.0,71,0.00,,,0.00,105,weatherlink.com 1.10,2013-03-28 13:03:00,
2013-03-28 09:18:00,39.7,31.0,29.98,North,350,0.0,5.0,71,0.00,,,0.00,127,weatherlink.com 1.10,2013-03-28 13:18:00,
2013-03-28 09:33:00,40.3,31.0,29.98,NNW,345,0.0,4.0,70,0.00,,,0.00,123,weatherlink.com 1.10,2013-03-28 13:33:00,
2013-03-28 09:48:00,40.7,32.0,29.98,NNW,331,0.0,4.0,70,0.00,,,0.00,144,weatherlink.com 1.10,2013-03-28 13:48:00,
2013-03-28 10:03:00,41.0,32.0,29.98,SSW,212,0.0,3.0,69,0.00,,,0.00,134,weatherlink.com 1.10,2013-03-28 14:03:00,
2013-03-28 10:18:00,41.1,32.0,29.98,WNW,292,1.0,5.0,70,0.00,,,0.00,114,weatherlink.com 1.10,2013-03-28 14:18:00,
2013-03-28 10:33:00,41.5,32.0,29.99,WNW,300,0.0,6.0,70,0.00,,,0.00,167,weatherlink.com 1.10,2013-03-28 14:33:00,
2013-03-28 10:49:00,41.8,33.0,29.99,West,259,1.0,4.0,70,0.00,,,0.00,176,weatherlink.com 1.10,2013-03-28 14:49:00,
2013-03-28 11:03:00,41.7,33.0,30.00,NNW,342,2.0,6.0,71,0.00,,,0.00,167,weatherlink.com 1.10,2013-03-28 15:03:00,
2013-03-28 11:18:00,41.7,34.0,30.00,SSW,197,1.0,7.0,73,0.00,,,0.00,244,weatherlink.com 1.10,2013-03-28 15:18:00,
2013-03-28 11:33:00,42.3,34.0,30.00,NNW,328,1.0,5.0,71,0.00,,,0.00,162,weatherlink.com 1.10,2013-03-28 15:33:00,
2013-03-28 11:48:00,42.2,33.0,30.00,West,275,0.0,3.0,71,0.00,,,0.00,123,weatherlink.com 1.10,2013-03-28 15:48:00,
2013-03-28 12:03:00,43.0,33.0,30.00,NNW,345,3.0,5.0,69,0.00,,,0.00,260,weatherlink.com 1.10,2013-03-28 16:03:00,
2013-03-28 12:18:00,43.7,33.0,29.99,NNW,345,0.0,5.0,66,0.00,,,0.00,183,weatherlink.com 1.10,2013-03-28 16:18:00,
2013-03-28 12:33:00,43.4,32.0,29.99,NNW,341,3.0,7.0,65,0.00,,,0.00,155,weatherlink.com 1.10,2013-03-28 16:33:00,
2013-03-28 12:48:00,43.5,32.0,30.00,North,355,1.0,2.0,65,0.00,,,0.00,134,weatherlink.com 1.10,2013-03-28 16:48:00,
2013-03-28 13:03:00,43.6,32.0,29.99,SSE,154,1.0,5.0,64,0.00,,,0.00,162,weatherlink.com 1.10,2013-03-28 17:03:00,
2013-03-28 13:18:00,44.1,33.0,29.99,WNW,294,1.0,4.0,64,0.00,,,0.00,146,weatherlink.com 1.10,2013-03-28 17:18:00,
2013-03-28 13:33:00,44.5,32.0,29.99,West,275,1.0,4.0,63,0.00,,,0.00,91,weatherlink.com 1.10,2013-03-28 17:33:00,
2013-03-28 13:48:00,44.2,32.0,29.99,NNW,342,0.0,6.0,62,0.00,,,0.00,130,weatherlink.com 1.10,2013-03-28 17:48:00,
2013-03-28 14:03:00,44.5,32.0,29.99,WSW,256,1.0,5.0,62,0.00,,,0.00,125,weatherlink.com 1.10,2013-03-28 18:03:00,
2013-03-28 14:18:00,44.5,32.0,29.98,NNE,15,2.0,9.0,62,0.00,,,0.00,105,weatherlink.com 1.10,2013-03-28 18:18:00,
2013-03-28 14:33:00,44.7,32.0,29.98,West,271,0.0,6.0,62,0.00,,,0.00,125,weatherlink.com 1.10,2013-03-28 18:33:00,
2013-03-28 14:48:00,45.0,32.0,29.98,West,269,2.0,4.0,61,0.00,,,0.00,134,weatherlink.com 1.10,2013-03-28 18:48:00,
2013-03-28 15:03:00,45.1,32.0,29.98,West,275,1.0,7.0,61,0.00,,,0.00,97,weatherlink.com 1.10,2013-03-28 19:03:00,
2013-03-28 15:18:00,45.3,32.0,29.98,North,360,0.0,6.0,61,0.00,,,0.00,91,weatherlink.com 1.10,2013-03-28 19:18:00,
2013-03-28 15:33:00,45.4,33.0,29.98,NNE,26,2.0,4.0,62,0.00,,,0.00,123,weatherlink.com 1.10,2013-03-28 19:33:00,
2013-03-28 15:48:00,45.9,33.0,29.98,NNW,338,2.0,6.0,61,0.00,,,0.00,181,weatherlink.com 1.10,2013-03-28 19:48:00,
2013-03-28 16:04:00,46.4,33.0,29.98,NNW,329,1.0,6.0,60,0.00,,,0.00,146,weatherlink.com 1.10,2013-03-28 20:04:00,
2013-03-28 16:19:00,46.8,33.0,29.98,SW,236,3.0,3.0,60,0.00,,,0.00,77,weatherlink.com 1.10,2013-03-28 20:19:00,
2013-03-28 16:34:00,46.3,33.0,29.98,North,360,1.0,5.0,60,0.00,,,0.00,81,weatherlink.com 1.10,2013-03-28 20:34:00,
2013-03-28 16:49:00,46.0,33.0,29.98,NNE,22,0.0,8.0,61,0.00,,,0.00,74,weatherlink.com 1.10,2013-03-28 20:49:00,
2013-03-28 17:04:00,46.1,33.0,29.98,NW,322,2.0,6.0,61,0.00,,,0.00,125,weatherlink.com 1.10,2013-03-28 21:04:00,
2013-03-28 17:19:00,46.3,33.0,29.98,South,175,1.0,6.0,60,0.00,,,0.00,47,weatherlink.com 1.10,2013-03-28 21:19:00,
2013-03-28 17:34:00,46.0,33.0,29.98,NNW,330,1.0,5.0,61,0.00,,,0.00,26,weatherlink.com 1.10,2013-03-28 21:34:00,
2013-03-28 17:49:00,45.9,33.0,29.98,NNW,332,1.0,2.0,61,0.00,,,0.00,125,weatherlink.com 1.10,2013-03-28 21:49:00,
2013-03-28 18:04:00,46.6,33.0,29.99,NW,320,4.0,7.0,60,0.00,,,0.00,155,weatherlink.com 1.10,2013-03-28 22:04:00,
2013-03-28 18:19:00,47.0,33.0,29.99,South,182,0.0,3.0,59,0.00,,,0.00,69,weatherlink.com 1.10,2013-03-28 22:19:00,
2013-03-28 18:34:00,46.9,33.0,30.00,NNW,331,2.0,3.0,59,0.00,,,0.00,47,weatherlink.com 1.10,2013-03-28 22:34:00,
2013-03-28 18:49:00,46.6,33.0,30.00,NNW,329,1.0,3.0,59,0.00,,,0.00,21,weatherlink.com 1.10,2013-03-28 22:49:00,
2013-03-28 19:04:00,46.3,32.0,30.01,SSE,162,0.0,3.0,58,0.00,,,0.00,7,weatherlink.com 1.10,2013-03-28 23:04:00,
2013-03-28 19:19:00,46.1,32.0,30.01,North,355,3.0,4.0,58,0.00,,,0.00,0,weatherlink.com 1.10,2013-03-28 23:19:00,
2013-03-28 19:34:00,45.9,32.0,30.01,NNW,348,0.0,4.0,58,0.00,,,0.00,0,weatherlink.com 1.10,2013-03-28 23:34:00,
2013-03-28 19:49:00,45.7,31.0,30.02,NNW,341,1.0,3.0,58,0.00,,,0.00,0,weatherlink.com 1.10,2013-03-28 23:49:00,
2013-03-28 20:04:00,45.5,31.0,30.02,NNW,333,1.0,3.0,58,0.00,,,0.00,0,weatherlink.com 1.10,2013-03-29 00:04:00,
2013-03-28 20:19:00,45.4,31.0,30.02,NW,315,1.0,4.0,58,0.00,,,0.00,0,weatherlink.com 1.10,2013-03-29 00:19:00,
2013-03-28 20:34:00,45.3,31.0,30.03,NNW,333,2.0,2.0,58,0.00,,,0.00,0,weatherlink.com 1.10,2013-03-29 00:34:00,
2013-03-28 20:49:00,45.1,31.0,30.03,ESE,115,1.0,4.0,58,0.00,,,0.00,0,weatherlink.com 1.10,2013-03-29 00:49:00,
2013-03-28 21:04:00,45.0,31.0,30.04,NNW,330,4.0,6.0,59,0.00,,,0.00,0,weatherlink.com 1.10,2013-03-29 01:04:00,
2013-03-28 21:19:00,44.9,31.0,30.04,WNW,295,2.0,4.0,59,0.00,,,0.00,0,weatherlink.com 1.10,2013-03-29 01:19:00,
2013-03-28 21:34:00,44.8,31.0,30.05,South,186,1.0,5.0,59,0.00,,,0.00,0,weatherlink.com 1.10,2013-03-29 01:34:00,
2013-03-28 21:49:00,44.7,31.0,30.05,SE,126,1.0,6.0,60,0.00,,,0.00,0,weatherlink.com 1.10,2013-03-29 01:49:00,
2013-03-28 22:04:00,44.5,31.0,30.05,NE,52,1.0,6.0,60,0.00,,,0.00,0,weatherlink.com 1.10,2013-03-29 02:04:00,
2013-03-28 22:19:00,44.3,31.0,30.06,NNW,330,1.0,7.0,61,0.00,,,0.00,0,weatherlink.com 1.10,2013-03-29 02:19:00,
2013-03-28 22:34:00,44.1,31.0,30.06,South,175,4.0,6.0,61,0.00,,,0.00,0,weatherlink.com 1.10,2013-03-29 02:34:00,
2013-03-28 22:50:00,44.0,31.0,30.06,NW,325,2.0,8.0,61,0.00,,,0.00,0,weatherlink.com 1.10,2013-03-29 02:50:00,
2013-03-28 23:04:00,43.8,31.0,30.06,NW,312,2.0,8.0,61,0.00,,,0.00,0,weatherlink.com 1.10,2013-03-29 03:04:00,
2013-03-28 23:19:00,43.6,31.0,30.06,SSE,163,0.0,5.0,61,0.00,,,0.00,0,weatherlink.com 1.10,2013-03-29 03:19:00,
2013-03-28 23:34:00,43.5,31.0,30.06,NW,321,1.0,9.0,61,0.00,,,0.00,0,weatherlink.com 1.10,2013-03-29 03:34:00,
2013-03-28 23:49:00,43.3,30.0,30.06,NNW,333,6.0,6.0,61,0.00,,,0.00,0,weatherlink.com 1.10,2013-03-29 03:49:00,